Caledonia, OH

2:03 PM EST on December 06, 2016 (GMT -0500)
Marion Municipal

Weather History for KMNN - October, 2012

Change the Weather History Date:

Tuesday, October 2, 2012

  Actual Average (KMFD) Record (KMFD)
Temperature  
Mean Temperature 62 °F 56 °F  
Max Temperature 72 °F 67 °F 86 °F (1927)
Min Temperature 52 °F 46 °F 26 °F (1947)
Degree Days  
Heating Degree Days 4 9  
Month to date heating degree days 18  
Since 1 July heating degree days 168  
Cooling Degree Days 0 1  
Month to date cooling degree days 2  
Year to date cooling degree days 627  
Growing Degree Days 12 (Base 50)    
Moisture  
Dew Point 58 °F    
Average Humidity 91    
Maximum Humidity 100    
Minimum Humidity 75    
Precipitation  
Precipitation 0.29 in 0.10 in 1.12 in (1969)
Month to date precipitation 0.19  
Year to date precipitation 34.34  
Snow  
Snow 0.00 in 0.00 in - ()
Month to date snowfall 0.0  
Since 1 July snowfall 0.0  
Since 1 September snowfall 0.0  
Snow Depth -    
Sea Level Pressure  
Sea Level Pressure 29.81 in    
Wind  
Wind Speed 7 mph (NNE)    
Max Wind Speed 15 mph    
Max Gust Speed -    
Visibility 6 miles    
Events Rain    
T = Trace of Precipitation, MM = Missing Value Source: NWS Daily Summary

Daily Weather History Graph

Daily Weather History Graph

Search for Another Location

Airport or City:

Trip Planner

Search our weather history database for the weather conditions in past years. The results will help you decide how hot, cold, wet, or windy it might be!

Date:

Astronomy

Oct. 02, 2012 Rise Set
Actual Time 7:30 AM EDT 7:11 PM EDT
Civil Twilight 7:02 AM EDT 7:39 PM EDT
Nautical Twilight 6:31 AM EDT 8:10 PM EDT
Astronomical Twilight 5:59 AM EDT 8:42 PM EDT
Moon 8:23 PM EDT (10/2) 9:57 AM EDT (10/2)
Length of Visible Light 12h 36m
Length of Day
11h 41m
Waning Gibbous, 94% of the Moon is Illuminated
Oct 2
Waning Gibbous
Oct 8
Last Quarter
Oct 15
New
Oct 21
First Quarter
Oct 29
Full

Hourly Weather History & Observations

Time (EDT) Temp. Dew Point Humidity Pressure Visibility Wind Dir Wind Speed Gust Speed Precip Events Conditions
12:53 AM 53.1 °F 51.1 °F 93% 29.78 in 7.0 mi ENE 11.5 mph - 0.10 in   Overcast
1:36 AM 53.6 °F 51.8 °F 94% 29.79 in 4.0 mi NNE 6.9 mph - 0.09 in Rain Light Rain
1:51 AM 53.6 °F 51.8 °F 94% 29.79 in 2.5 mi NNE 6.9 mph - 0.15 in Rain Heavy Rain
1:53 AM 52.0 °F 52.0 °F 100% 29.79 in 2.5 mi NNE 8.1 mph - 0.16 in Rain Heavy Rain
2:00 AM 53.6 °F 51.8 °F 94% 29.78 in 3.0 mi NE 9.2 mph - 0.01 in Rain Light Rain
3:21 AM 53.6 °F 51.8 °F 94% 29.76 in 7.0 mi ENE 8.1 mph - N/A   Overcast
3:53 AM 54.0 °F 52.0 °F 93% 29.75 in 6.0 mi East 10.4 mph - 0.00 in Rain Light Rain
4:53 AM 54.0 °F 53.1 °F 97% 29.75 in 6.0 mi ENE 4.6 mph - 0.00 in   Overcast
5:42 AM 53.6 °F 53.6 °F 100% 29.76 in 5.0 mi NE 3.5 mph - N/A   Overcast
5:53 AM 54.0 °F 53.1 °F 97% 29.77 in 5.0 mi ENE 3.5 mph - N/A   Overcast
6:19 AM 55.4 °F 53.6 °F 94% 29.77 in 4.0 mi NE 5.8 mph - N/A   Overcast
6:53 AM 55.0 °F 54.0 °F 96% 29.78 in 4.0 mi ENE 3.5 mph - 0.00 in Rain Light Rain
7:48 AM 55.4 °F 53.6 °F 94% 29.79 in 3.0 mi NE 3.5 mph - 0.01 in   Overcast
7:53 AM 55.9 °F 54.0 °F 93% 29.80 in 2.5 mi North 3.5 mph - 0.01 in   Overcast
8:00 AM 55.4 °F 53.6 °F 94% 29.80 in 3.0 mi NNE 3.5 mph - N/A   Overcast
8:12 AM 55.4 °F 53.6 °F 94% 29.80 in 2.5 mi NNE 3.5 mph - N/A   Overcast
8:53 AM 55.9 °F 55.0 °F 97% 29.82 in 2.0 mi NE 3.5 mph - N/A   Overcast
9:35 AM 57.2 °F 55.4 °F 94% 29.81 in 2.5 mi NE 4.6 mph - N/A   Overcast
9:53 AM 57.9 °F 55.9 °F 93% 29.82 in 3.0 mi ENE 4.6 mph - N/A   Overcast
10:53 AM 61.0 °F 59.0 °F 93% 29.82 in 5.0 mi East 4.6 mph - N/A   Overcast
11:53 AM 63.0 °F 60.1 °F 90% 29.82 in 8.0 mi SE 4.6 mph - N/A   Overcast
12:53 PM 68.0 °F 62.1 °F 81% 29.81 in 10.0 mi East 4.6 mph - N/A   Overcast
1:53 PM 69.1 °F 63.0 °F 81% 29.79 in 10.0 mi ENE 6.9 mph - N/A   Overcast
2:06 PM 69.8 °F 62.6 °F 78% 29.79 in 10.0 mi East 4.6 mph - N/A   Overcast
2:53 PM 70.0 °F 63.0 °F 78% 29.79 in 10.0 mi NNE 6.9 mph - N/A   Overcast
3:53 PM 71.1 °F 63.0 °F 75% 29.78 in 10.0 mi NNE 11.5 mph - N/A   Overcast
4:53 PM 69.1 °F 62.1 °F 78% 29.79 in 10.0 mi NNE 12.7 mph - N/A   Overcast
5:16 PM 69.8 °F 62.6 °F 78% 29.79 in 10.0 mi NNE 15.0 mph - N/A   Mostly Cloudy
5:53 PM 70.0 °F 63.0 °F 78% 29.79 in 10.0 mi NNE 13.8 mph - N/A   Partly Cloudy
6:26 PM 68.0 °F 62.6 °F 83% 29.81 in 10.0 mi North 9.2 mph - N/A   Overcast
6:53 PM 66.9 °F 62.1 °F 84% 29.82 in 9.0 mi NNE 9.2 mph - 0.00 in Rain Light Rain
7:07 PM 66.2 °F 62.6 °F 88% 29.83 in 4.0 mi North 6.9 mph - 0.00 in Rain Light Rain
7:23 PM 64.4 °F 62.6 °F 94% 29.84 in 4.0 mi NW 8.1 mph - 0.01 in Rain Light Rain
7:32 PM 64.4 °F 62.6 °F 94% 29.84 in 5.0 mi NNW 5.8 mph - 0.02 in Rain Light Rain
7:53 PM 64.0 °F 62.1 °F 93% 29.84 in 6.0 mi NNW 11.5 mph - 0.02 in   Overcast
8:16 PM 62.6 °F 60.8 °F 94% 29.84 in 6.0 mi North 9.2 mph - N/A   Overcast
8:35 PM 62.6 °F 60.8 °F 94% 29.86 in 6.0 mi North 6.9 mph - N/A   Overcast
8:42 PM 62.6 °F 60.8 °F 94% 29.87 in 6.0 mi NNW 5.8 mph - N/A   Overcast
8:53 PM 63.0 °F 61.0 °F 93% 29.86 in 5.0 mi North 5.8 mph - N/A   Overcast
9:53 PM 62.1 °F 61.0 °F 96% 29.88 in 5.0 mi North 8.1 mph - N/A   Overcast
10:26 PM 60.8 °F 60.8 °F 100% 29.89 in 4.0 mi NNW 3.5 mph - N/A   Overcast
10:53 PM 61.0 °F 60.1 °F 97% 29.88 in 4.0 mi NNE 4.6 mph - N/A   Overcast
11:31 PM 60.8 °F 60.8 °F 100% 29.89 in 3.0 mi North 3.5 mph - N/A   Overcast
11:45 PM 60.8 °F 60.8 °F 100% 29.89 in 2.5 mi Calm Calm - N/A   Overcast
11:53 PM 61.0 °F 60.1 °F 97% 29.88 in 1.5 mi Calm Calm - N/A   Overcast